SCP
0 0 0 0 0 0 0 0 0 0 0 0 0 0 0 0 0 0 0 0 0 0 -0 -0 -0 -0 0 0 0 0 -0 0 0 0 0 0 0 0 0 0 0 0 0 0 0 0 0 0 0 0 0 0 0 0
0 0 0 0 0 0 0 0 0 0 0 0 0 0 0 0 0 0 0 0 -0 -0 -0 -0 -0 -0 -0 -0 0 0 0 0 0 0 0 0 0 0 0 0 0 0 0 0 0 0 0 0 0 0 0 0 0 0
0 0 0 0 0 0 0 0 0 0 0 0 0 0 0 0 0 0 0 0 0 -0 -0 -0 -0 -0 -0 0 -0 0 0 -0 0 0 0 0 0 0 0 0 0 0 0 0 0 0 0 0 -0 0 0 0 0 0
0 0 0 0 0 0 0 0 0 0 0 0 0 0 0 0 0 -0 0 0 0 0 -0 -0 0 -0 -0 0 -0 -0 0 0 0 0 0 0 0 0 0 0 0 0 0 0 0 -0 -0 -0 -0 0 0 0 0 0
0 0 0 0 0 0 0 0 0 0 0 0 0 0 0 0 -0 0 0 0 -0 0 0 -0 -0 0 -0 -0 -0 0 -0 0 0 0 0 0 0 0 0 0 0 0 0 0 0 0 -0 0 0 0 0 0 0 0
0 0 0 0 0 0 0 0 0 0 0 0 0 0 0 0 -0 -0 -0 0 -0 -0 0 0 -0 0 0 0 0 0 0 0 0 0 0 0 0 0 0 0 0 0 0 0 0 -0 -0 -0 -0 0 0 0 0 0
0 0 0 0 0 0 0 0 0 0 0 -0 0 0 0 -0 -0 0 0 0 0 -0 0 -0 -0 -0 0 0 0 0 0 0 0 0 0 0 0 0 0 0 0 0 0 -0 -0 -0 0 0 0 0 0 0 0 0
0 0 0 0 -0 0 0 0 -0 -0 -0 0 0 0 -0 -0 0 0 0 -0 0 0 0 0 0 0 0 0 0 0 0 0 0 0 0 0 0 0 0 0 0 0 -0 0 0 0 0 0 0 0 0 0 0 0
0 0 0 -0 0 0 0 0 -0 -0 0 0 -0 -0 0 0 0 -0 -0 -0 0 0 0 0 0 0 0 0 0 0 0 0 0 0 0 0 0 0 0 0 0 0 0 0 0 0 0 0 0 0 0 0 0 0
0 -0 -0 0 0 0 0 0 -0 -0 -0 -0 0 0 0 0 -0 -0 0 -0 -0 0 0 -0 0 0 0 0 0 0 0 0 0 0 0 0 0 0 0 0 0 0 0 0 0 0 0 0 0 0 0 0 0 0
-0 0 0 0 0 0 0 0 0 0 0 0 0 0 0 -0 0 0 0 -0 0 -0 0 0 0 0 0 0 0 0 0 0 0 0 0 0 0 0 0 0 0 0 0 0 0 0 0 0 0 0 0 0 0 0
0 0 0 -0 0 0 0 0 0 0 0 0 0 0 0 0 0 0 0 0 0 0 0 0 0 0 0 0 0 0 0 0 0 0 0 0 0 0 0 0 0 0 0 0 0 0 0 0 0 0 0 0 0 0
0 0 -0 0 -0 -0 0 -0 0 -0 0 0 0 0 0 0 0 0 0 0 0 0 -0 0 0 0 0 0 0 0 0 0 0 0 0 0 0 -0 -0 0 0 0 0 0 0 0 0 0 0 0 0 0 0 0
0 -0 0 -0 -0 -0 0 0 -0 0 0 0 0 0 0 0 0 0 0 -0 0 0 -0 -0 0 0 0 0 0 0 0 0 0 0 0 0 -0 -0 -0 0 -0 0 0 0 0 0 0 0 -0 0 0 0 0 0
0 -0 -0 -0 0 0 -0 -0 -0 0 0 0 0 0 0 -0 0 -0 0 0 0 0 0 0 0 0 0 0 0 0 0 0 0 0 0 -0 -0 -0 -0 0 0 0 0 0 0 0 0 0 -0 0 0 -0 -0 -0
-0 -0 0 0 0 -0 -0 -0 0 0 0 0 0 0 -0 -0 -0 0 0 0 0 0 0 0 0 0 0 0 0 0 0 0 0 0 0 -0 -0 0 0 0 0 0 0 0 0 0 0 -0 -0 -0 -0 -0 -0 -0
-0 0 0 0 -0 -0 -0 0 0 0 0 0 0 0 0 0 0 0 0 0 0 0 0 0 0 0 0 0 0 0 -0 0 -0 0 -0 -0 -0 0 0 0 0 0 0 0 0 0 0 -0 -0 0 -0 -0 -0 0
0 0 0 0 0 0 0 0 0 0 0 0 0 0 0 0 0 0 0 0 0 0 0 0 0 0 0 0 0 0 -0 0 -0 -0 -0 -0 -0 -0 0 0 0 0 0 0 0 0 0 0 0 -0 -0 -0 0 0
0 0 0 -0 0 0 0 0 0 0 0 0 0 0 0 0 0 0 0 0 0 0 0 -0 -0 -0 0 0 0 -0 -0 0 -0 0 -0 -0 -0 -0 0 0 0 0 0 0 0 0 0 -0 0 -0 -0 0 0 0
-0 0 0 0 0 0 0 0 0 0 0 0 0 0 -0 0 0 0 0 0 0 0 -0 -0 0 0 0 0 0 -0 0 -0 -0 -0 -0 0 0 -0 0 0 0 0 0 0 0 0 0 0 0 0 -0 0 0 0
0 0 0 0 0 0 0 0 0 0 0 0 0 0 0 0 0 0 0 0 0 -0 0 0 0 0 0 -0 -0 0 0 0 0 0 -0 0 0 0 0 0 0 0 0 0 0 0 0 0 0 0 0 -0 0 0
0 0 0 0 0 0 0 0 0 0 0 0 0 0 0 0 0 -0 -0 0 0 0 0 0 0 0 0 -0 -0 0 0 -0 -0 -0 -0 -0 0 0 0 0 0 0 0 0 0 0 0 0 0 0 0 0 0 0
0 0 0 0 0 0 0 0 0 0 0 0 0 0 0 0 0 0 0 0 0 0 0 0 0 0 0 -0 -0 0 0 0 0 -0 -0 -0 -0 0 0 0 0 0 0 0 0 -0 -0 -0 0 0 -0 0 0 0
0 0 0 0 0 0 0 0 0 0 0 0 0 0 0 0 0 0 0 0 0 0 0 0 0 0 0 0 0 0 0 0 0 0 0 0 0 0 0 0 0 0 0 0 -0 -0 -0 -0 -0 0 -0 -0 -0 0
0 0 0 0 0 0 0 0 0 0 0 0 0 0 0 0 0 0 0 0 0 0 0 0 0 0 -0 0 0 0 0 0 -0 0 0 0 0 0 0 0 0 0 0 -0 -0 -0 -0 -0 -0 0 0 0 -0 -0
0 0 0 0 0 0 0 0 0 0 0 0 0 0 0 0 0 0 0 0 -0 0 0 0 0 0 0 0 0 0 -0 0 -0 -0 -0 0 0 0 0 0 0 0 0 -0 -0 -0 -0 -0 -0 -0 0 0 0 0
-0 -0 0 0 0 0 0 0 0 0 0 0 0 0 0 0 0 0 0 0 0 0 0 0 0 0 0 0 0 0 0 0 -0 -0 0 -0 -0 0 0 0 0 0 0 -0 -0 -0 -0 -0 -0 -0 -0 0 0 0
0 0 0 0 0 0 0 0 0 0 0 0 0 0 0 0 0 0 0 0 0 0 0 0 0 0 0 0 0 0 0 0 0 -0 -0 -0 -0 0 0 0 0 -0 -0 -0 -0 0 -0 -0 -0 -0 -0 -0 -0 -0
-0 0 0 0 0 0 0 0 0 0 0 0 0 0 0 0 0 0 0 0 0 0 0 0 0 0 0 0 0 0 0 0 0 0 0 0 0 0 0 0 0 -0 -0 -0 -0 -0 -0 -0 -0 -0 -0 -0 -0 -0
0 0 0 0 0 0 0 0 -0 0 0 0 0 0 0 0 0 0 0 0 0 0 0 0 0 0 0 0 0 0 0 0 0 0 0 0 0 0 0 0 0 0 0 -0 -0 0 0 -0 -0 -0 -0 -0 -0 -0
0 0 0 0 0 0 0 0 0 0 0 0 0 0 0 0 0 0 -0 0 0 0 0 0 0 0 0 0 0 0 0 0 0 0 0 0 0 0 0 0 0 0 0 0 0 0 0 0 0 -0 -0 -0 -0 -0
0 0 0 0 0 0 0 0 0 0 0 0 0 0 0 0 0 0 0 0 0 0 0 0 0 0 0 0 0 0 0 0 0 0 0 0 0 0 0 0 0 0 0 0 0 0 0 0 0 0 0 0 0 0
-0 0 0 0 0 0 0 0 0 0 0 0 0 0 0 0 0 0 0 0 0 0 0 0 0 0 0 0 0 0 0 0 0 0 0 0 0 0 0 0 0 0 0 0 0 0 0 0 0 0 0 0 0 0
Wind_Speed_500mb
44 41 40 37 39 41 44 46 47 45 46 47 46 42 35 29 33 33 41 35 30 23 60 55 28 35 31 22 10 34 24 4 5 5 5 5 3 5 4 3 9 7 6 5 3 7 1 16 6 7 11 25 45 37
45 37 39 40 43 45 45 46 46 46 46 47 45 43 37 26 27 33 48 38 41 44 64 76 80 68 55 71 55 12 10 16 7 6 4 3 4 6 3 4 9 7 4 8 5 4 12 29 39 54 58 54 58 57
40 35 38 41 43 45 47 47 48 47 48 46 43 39 35 23 29 35 48 46 38 32 63 27 30 33 27 29 26 16 12 9 10 26 7 3 4 5 5 5 8 6 4 8 5 14 16 38 55 59 64 66 59 55
32 33 36 42 45 45 47 46 47 46 44 42 41 39 35 30 33 38 47 49 47 21 11 20 21 40 38 37 37 44 46 37 38 29 5 4 2 3 5 1 7 1 8 9 14 19 40 39 54 62 63 60 59 51
31 31 39 41 45 46 48 48 47 46 46 43 37 38 36 38 34 40 46 24 14 25 9 29 67 7 28 25 21 24 44 37 26 3 5 3 5 3 4 5 9 6 11 8 6 11 31 17 42 49 51 49 47 47
31 34 34 44 44 45 47 48 46 47 45 37 38 40 40 37 31 30 14 19 10 10 14 8 22 26 30 23 16 13 20 29 22 6 7 9 8 4 6 5 7 10 11 22 19 34 49 41 37 35 48 40 35 29
28 35 42 41 42 44 47 48 44 46 41 38 41 41 37 32 20 24 11 11 34 36 11 9 9 13 33 15 4 3 9 10 7 6 4 3 10 8 5 5 2 35 53 65 54 66 36 24 34 33 30 26 16 13
36 36 38 41 42 43 46 45 45 42 36 39 39 34 27 14 8 16 6 18 12 7 9 6 8 12 17 12 9 6 6 5 9 7 6 5 9 9 6 2 25 49 52 42 30 26 49 49 37 28 19 12 5 4
35 38 39 41 44 43 39 36 40 35 32 37 32 17 7 4 5 7 18 11 10 9 5 5 5 6 15 6 7 4 7 4 6 3 3 4 5 7 3 11 37 43 35 48 49 56 48 38 28 18 10 8 10 11
37 38 40 41 40 36 35 30 34 28 30 30 14 6 3 12 16 15 4 6 9 8 10 6 7 5 6 9 10 9 4 1 2 5 4 6 4 8 19 26 33 37 50 57 62 40 33 28 17 12 13 16 15 14
33 36 36 37 33 33 27 26 25 26 23 21 14 5 25 10 6 4 5 7 7 5 10 11 14 6 2 2 3 5 3 3 3 7 6 3 3 7 28 44 39 45 46 29 38 32 25 19 14 13 13 12 11 10
35 35 33 34 32 27 23 20 19 24 25 24 22 22 12 4 3 3 5 4 7 5 6 6 11 21 11 17 7 8 4 2 4 4 6 2 3 35 44 49 48 45 43 37 25 28 23 19 18 16 10 10 11 9
32 31 33 34 26 18 11 12 18 25 23 11 4 5 3 2 3 6 5 1 6 14 9 21 10 5 4 6 4 3 3 4 5 4 5 3 28 40 53 54 49 41 38 37 35 28 24 21 18 16 10 8 9 9
30 32 31 27 14 6 11 17 20 19 10 5 4 6 5 5 7 3 4 4 13 12 33 38 15 2 4 4 1 1 2 4 4 3 8 9 38 52 54 51 47 39 32 32 30 24 20 16 22 19 13 10 10 8
29 29 28 8 8 14 21 21 17 15 6 6 5 6 9 13 8 13 20 17 24 29 27 17 12 5 4 3 1 3 2 5 7 8 5 36 54 62 56 48 36 35 33 29 26 22 21 17 23 20 15 11 13 12
27 27 9 15 20 26 28 22 13 12 6 7 10 7 13 8 10 21 24 19 17 9 14 7 5 3 5 5 3 7 3 6 6 4 25 59 58 61 56 43 34 32 29 28 26 23 23 20 22 25 22 13 11 15
26 11 17 30 35 37 17 13 10 9 8 7 11 20 32 26 23 24 20 15 5 12 2 5 4 4 6 3 4 4 6 5 6 27 50 56 59 60 52 44 36 33 29 27 27 23 25 23 17 23 24 22 16 16
30 25 26 23 27 17 8 11 7 9 12 15 9 16 17 26 20 23 30 14 4 1 2 6 11 5 3 5 5 4 1 12 26 37 46 39 48 50 46 41 36 30 27 26 24 22 22 26 18 14 20 22 24 22
33 33 24 13 8 8 3 7 11 8 15 15 21 28 23 17 28 19 21 23 19 17 9 2 3 2 5 6 5 4 18 29 35 37 35 34 39 47 41 35 31 29 26 27 24 25 23 19 23 19 16 17 19 17
27 19 10 7 8 4 5 8 7 10 8 7 18 17 16 23 28 27 27 21 16 6 4 5 6 9 7 10 13 12 25 36 40 39 38 45 45 41 38 33 28 27 27 29 26 24 24 19 7 9 15 14 11 16
14 5 12 7 9 11 8 7 8 9 14 11 22 17 15 19 14 10 9 8 6 4 4 11 17 11 15 13 2 21 35 37 39 40 46 46 44 41 35 27 25 28 29 29 27 25 16 10 10 7 13 19 24 20
9 11 7 5 6 6 10 11 11 13 9 14 17 7 10 8 8 5 8 5 3 5 5 6 9 5 4 12 18 29 35 32 33 30 41 40 46 42 36 28 28 27 25 22 23 20 19 17 13 12 17 19 15 18
7 5 5 5 6 7 10 8 7 7 4 6 7 6 6 6 4 10 5 6 8 16 13 6 4 3 14 22 14 21 27 30 30 31 29 33 33 31 33 28 25 24 25 24 22 19 20 21 17 15 22 21 15 13
2 4 5 5 9 9 6 6 8 7 7 4 3 6 5 4 1 4 5 7 16 23 16 7 7 7 20 23 19 23 20 17 24 30 30 29 32 31 29 25 26 26 21 19 25 24 22 23 23 22 18 20 16 12
6 7 6 8 8 5 6 4 6 3 6 6 4 6 3 6 3 5 4 3 16 13 19 13 16 18 22 22 18 16 16 15 20 26 33 36 27 26 31 33 29 28 30 31 29 28 28 26 29 27 24 21 20 18
6 7 11 7 6 7 4 5 6 5 5 5 7 1 4 3 4 4 2 7 17 22 16 18 18 4 18 22 21 21 15 15 19 23 29 31 38 34 30 34 35 34 32 35 39 33 33 30 31 30 27 23 19 17
6 8 11 12 9 10 8 11 17 7 6 5 4 5 5 3 4 1 8 8 7 10 11 19 18 15 12 16 21 19 14 7 16 21 19 15 26 27 26 25 30 30 22 10 28 34 33 36 36 34 30 26 23 18
11 9 8 9 10 16 7 5 5 3 4 8 8 4 7 3 1 5 5 4 1 4 12 11 10 10 9 13 9 4 13 18 18 8 9 18 22 20 14 24 33 25 30 15 15 27 25 30 32 30 29 32 31 28
10 10 7 12 13 10 9 7 3 5 7 3 2 3 5 6 8 7 5 2 8 8 8 4 6 3 3 5 5 2 5 8 7 13 17 20 25 18 19 18 22 32 34 29 24 21 22 19 22 24 22 19 20 25
10 13 8 8 5 4 4 10 3 13 14 9 8 32 34 24 19 12 9 9 6 5 6 6 5 3 2 4 8 7 6 9 7 3 5 9 14 16 23 26 24 26 39 38 32 31 33 29 27 29 27 21 24 23
7 4 8 8 7 9 15 9 10 9 7 11 34 32 21 16 16 11 7 7 6 5 1 3 4 3 1 2 3 6 5 4 1 3 10 9 9 12 20 18 20 28 37 41 39 39 38 39 36 39 39 32 28 26
10 15 7 4 6 6 14 8 4 7 6 14 12 16 18 10 6 7 5 4 7 13 14 14 15 17 18 17 15 16 15 14 11 10 7 7 12 13 9 21 22 28 43 45 48 38 42 44 44 47 44 38 32 27
11 18 16 8 5 4 7 6 2 2 5 7 10 19 10 10 7 9 5 3 6 8 11 15 19 21 23 23 26 28 31 32 31 27 22 16 16 16 24 26 35 27 28 35 35 36 42 45 42 47 45 40 34 26
Wind_Direction_500mb
280 280 285 291 298 303 307 311 314 315 317 319 319 319 320 327 332 318 307 312 293 288 291 278 267 292 292 258 287 299 319 338 300 318 322 350 351 357 20 109 118 114 106 107 287 86 4 12 322 160 149 100 118 121
274 282 294 300 303 305 308 309 312 314 314 315 318 317 318 319 329 322 307 305 303 287 272 290 287 286 267 265 272 259 268 308 300 316 313 2 358 14 345 69 37 46 155 130 95 193 321 56 94 102 106 98 110 114
278 287 290 293 300 304 305 309 313 312 312 314 316 315 315 319 318 318 306 312 309 291 303 288 284 304 298 264 294 245 248 273 252 310 296 325 41 339 26 9 87 81 27 91 90 25 42 68 97 108 118 116 122 131
281 282 292 294 299 304 306 310 311 312 313 316 318 315 318 312 312 309 304 303 293 275 278 290 322 306 313 288 267 256 257 284 292 301 294 313 75 243 347 61 83 329 27 98 83 102 79 67 104 114 114 120 121 124
273 277 285 297 302 307 310 309 311 310 313 314 315 315 314 310 309 301 294 282 325 220 283 291 306 311 331 312 314 243 242 262 282 19 325 301 232 309 350 63 13 353 152 129 159 114 109 119 122 127 122 119 122 126
268 280 295 295 300 303 305 308 306 309 313 313 316 318 316 312 309 309 313 218 44 29 288 304 312 309 344 333 308 250 238 263 251 182 241 284 350 88 75 74 302 21 72 141 128 131 124 130 128 128 123 117 115 113
269 274 285 295 300 305 308 306 308 310 312 316 318 313 314 307 272 251 239 287 296 295 284 284 281 301 325 335 256 207 221 253 249 317 16 335 351 38 78 94 148 90 114 124 138 139 104 126 111 112 114 115 115 109
277 285 295 298 300 304 303 307 310 312 319 323 317 313 316 308 281 266 255 317 326 270 246 276 278 333 349 317 351 8 326 20 36 354 350 24 8 24 56 30 110 114 118 116 138 160 135 128 125 113 107 100 84 349
285 290 294 299 302 304 307 313 313 319 332 330 326 324 296 309 300 285 298 293 250 247 269 273 285 307 334 306 341 350 6 25 330 41 344 62 339 30 260 137 122 137 146 130 127 127 127 120 108 92 61 21 345 320
292 299 302 305 303 309 311 314 317 327 340 334 341 350 288 311 291 305 249 232 222 225 230 257 252 264 301 353 351 1 11 279 22 287 42 50 37 33 93 131 143 142 144 145 128 122 121 108 93 56 10 346 332 313
300 300 303 308 309 311 311 318 321 329 342 353 344 314 317 329 305 268 254 217 200 232 224 241 227 253 231 11 277 252 244 209 108 262 108 17 94 93 125 121 126 139 139 124 119 116 109 92 68 25 357 333 325 315
295 299 305 306 307 311 315 323 327 326 333 326 305 301 313 306 287 292 256 250 223 242 232 243 256 215 218 218 197 218 227 91 214 130 75 141 112 139 135 132 137 142 137 133 136 120 98 68 39 12 356 337 341 333
298 302 305 307 310 311 325 331 325 313 323 319 252 263 273 262 282 236 257 281 320 347 333 323 324 276 194 228 238 36 41 253 103 55 192 187 137 145 141 137 134 136 134 128 119 103 83 58 34 21 29 24 4 344
300 302 308 309 303 304 323 323 322 318 325 268 274 282 213 232 236 215 240 251 268 261 298 311 293 305 316 356 153 35 250 105 63 170 228 160 156 154 152 146 139 140 139 130 116 101 77 55 47 43 43 44 24 43
304 311 308 274 261 288 301 303 304 288 263 260 231 243 231 251 290 304 299 272 277 291 289 298 288 248 294 320 270 20 241 263 208 222 217 166 166 165 158 154 146 153 150 142 130 105 79 72 61 58 57 70 60 92
312 321 225 221 270 294 297 291 280 234 240 236 232 272 274 325 316 313 306 295 311 291 304 237 281 319 260 198 162 225 185 235 252 223 145 156 165 167 163 164 169 156 154 149 140 108 84 91 74 63 62 81 87 84
315 315 283 284 295 307 283 271 201 222 239 231 243 246 259 277 266 270 279 298 313 324 295 30 310 253 302 257 240 169 203 238 189 132 155 165 171 171 172 171 164 163 159 157 150 125 89 86 73 64 67 71 96 96
311 316 312 306 309 328 178 196 247 233 239 246 233 262 242 252 261 298 295 303 290 351 78 219 214 246 273 295 307 273 234 121 139 155 159 166 169 175 176 173 171 169 161 156 158 149 96 82 76 82 68 72 78 95
316 315 311 284 300 326 242 235 232 262 245 259 265 279 280 295 290 290 291 295 298 268 263 155 30 290 262 250 257 238 160 153 147 148 157 167 180 178 176 174 169 167 163 155 149 148 129 104 66 83 98 74 70 80
310 313 324 243 202 223 266 265 241 265 269 279 279 281 287 274 284 283 273 269 251 230 189 153 213 231 243 314 320 255 175 160 155 147 156 168 177 177 174 172 168 164 159 156 153 149 145 138 127 92 88 107 99 97
323 298 322 199 214 236 258 278 253 254 293 281 292 307 285 287 273 256 256 226 213 229 237 232 252 274 297 324 171 166 168 165 174 174 173 173 179 178 172 170 169 170 172 173 175 177 171 155 132 120 130 101 98 100
281 291 306 237 245 239 256 241 250 296 267 275 295 254 272 283 266 229 180 181 240 316 304 336 336 17 27 126 144 173 172 185 189 181 181 182 179 182 179 179 179 183 191 185 178 170 164 162 156 153 141 147 123 102
238 239 265 253 272 235 262 237 247 252 244 265 282 288 255 259 266 172 75 56 36 344 307 288 300 278 162 158 157 177 188 192 191 189 185 201 197 193 192 191 185 182 185 191 185 182 174 170 166 145 149 153 156 148
276 264 261 241 226 263 269 239 233 252 272 278 269 276 277 304 272 75 73 28 6 36 20 191 200 181 181 189 183 175 176 190 192 191 197 205 201 202 206 205 204 205 205 195 195 197 194 189 183 179 157 141 151 151
262 231 219 260 244 256 259 242 227 218 248 229 238 269 293 344 68 59 80 351 9 35 44 45 232 222 179 163 168 173 180 188 194 196 205 207 196 192 212 220 225 228 222 214 211 203 197 189 187 185 185 185 183 182
247 227 198 240 232 197 251 303 309 253 253 256 234 199 18 34 82 88 90 112 62 47 44 49 47 167 192 171 177 177 185 211 212 204 202 211 211 202 208 218 227 233 238 240 230 211 204 197 191 191 193 193 190 189
261 273 237 241 259 276 283 244 230 240 262 245 193 110 23 351 112 207 131 137 135 28 67 75 54 60 103 136 131 128 135 148 199 201 206 212 195 213 220 225 227 229 214 219 220 211 206 198 197 203 207 210 212 213
243 261 234 300 277 235 229 248 255 289 12 346 0 64 147 32 125 143 135 67 350 48 102 94 83 52 83 97 103 170 212 217 218 204 175 178 182 196 230 240 231 227 197 194 184 199 197 196 200 209 221 228 227 223
244 240 251 270 264 249 227 223 261 75 323 344 276 145 141 77 86 92 100 104 132 122 141 157 142 202 290 289 301 340 148 157 182 221 239 240 221 206 216 226 225 224 210 200 185 192 198 195 201 210 208 218 206 200
250 207 220 258 246 249 10 330 259 280 220 208 109 117 110 100 105 100 92 88 123 114 77 61 75 143 134 160 117 116 153 183 173 186 264 282 266 237 223 229 219 213 212 208 196 199 205 206 209 208 208 208 200 200
254 216 226 243 268 264 299 314 309 321 156 129 149 137 129 130 114 127 126 90 99 121 311 336 340 358 103 144 128 148 130 101 135 233 233 255 258 243 220 214 218 215 208 207 205 207 210 211 214 212 214 217 214 212
216 209 209 231 269 307 307 297 264 194 146 148 164 160 158 149 117 160 126 195 241 256 258 260 275 284 295 305 301 294 277 286 279 259 258 253 232 218 218 224 214 218 218 214 217 222 226 218 220 219 221 221 217 215
223 234 241 262 284 311 7 320 232 88 139 137 153 178 167 149 147 186 233 259 262 263 268 261 257 260 260 264 264 265 262 261 261 266 258 256 261 257 231 239 229 215 210 213 223 220 215 213 224 221 218 216 214 219
Wind_Speed_850mb
44 41 40 37 39 41 44 46 47 45 46 47 46 42 35 29 33 33 41 35 30 23 60 55 28 35 31 22 10 34 24 4 5 5 5 5 3 5 4 3 9 7 6 5 3 7 1 16 6 7 11 25 45 37
45 37 39 40 43 45 45 46 46 46 46 47 45 43 37 26 27 33 48 38 41 44 64 76 80 68 55 71 55 12 10 16 7 6 4 3 4 6 3 4 9 7 4 8 5 4 12 29 39 54 58 54 58 57
40 35 38 41 43 45 47 47 48 47 48 46 43 39 35 23 29 35 48 46 38 32 63 27 30 33 27 29 26 16 12 9 10 26 7 3 4 5 5 5 8 6 4 8 5 14 16 38 55 59 64 66 59 55
32 33 36 42 45 45 47 46 47 46 44 42 41 39 35 30 33 38 47 49 47 21 11 20 21 40 38 37 37 44 46 37 38 29 5 4 2 3 5 1 7 1 8 9 14 19 40 39 54 62 63 60 59 51
31 31 39 41 45 46 48 48 47 46 46 43 37 38 36 38 34 40 46 24 14 25 9 29 67 7 28 25 21 24 44 37 26 3 5 3 5 3 4 5 9 6 11 8 6 11 31 17 42 49 51 49 47 47
31 34 34 44 44 45 47 48 46 47 45 37 38 40 40 37 31 30 14 19 10 10 14 8 22 26 30 23 16 13 20 29 22 6 7 9 8 4 6 5 7 10 11 22 19 34 49 41 37 35 48 40 35 29
28 35 42 41 42 44 47 48 44 46 41 38 41 41 37 32 20 24 11 11 34 36 11 9 9 13 33 15 4 3 9 10 7 6 4 3 10 8 5 5 2 35 53 65 54 66 36 24 34 33 30 26 16 13
36 36 38 41 42 43 46 45 45 42 36 39 39 34 27 14 8 16 6 18 12 7 9 6 8 12 17 12 9 6 6 5 9 7 6 5 9 9 6 2 25 49 52 42 30 26 49 49 37 28 19 12 5 4
35 38 39 41 44 43 39 36 40 35 32 37 32 17 7 4 5 7 18 11 10 9 5 5 5 6 15 6 7 4 7 4 6 3 3 4 5 7 3 11 37 43 35 48 49 56 48 38 28 18 10 8 10 11
37 38 40 41 40 36 35 30 34 28 30 30 14 6 3 12 16 15 4 6 9 8 10 6 7 5 6 9 10 9 4 1 2 5 4 6 4 8 19 26 33 37 50 57 62 40 33 28 17 12 13 16 15 14
33 36 36 37 33 33 27 26 25 26 23 21 14 5 25 10 6 4 5 7 7 5 10 11 14 6 2 2 3 5 3 3 3 7 6 3 3 7 28 44 39 45 46 29 38 32 25 19 14 13 13 12 11 10
35 35 33 34 32 27 23 20 19 24 25 24 22 22 12 4 3 3 5 4 7 5 6 6 11 21 11 17 7 8 4 2 4 4 6 2 3 35 44 49 48 45 43 37 25 28 23 19 18 16 10 10 11 9
32 31 33 34 26 18 11 12 18 25 23 11 4 5 3 2 3 6 5 1 6 14 9 21 10 5 4 6 4 3 3 4 5 4 5 3 28 40 53 54 49 41 38 37 35 28 24 21 18 16 10 8 9 9
30 32 31 27 14 6 11 17 20 19 10 5 4 6 5 5 7 3 4 4 13 12 33 38 15 2 4 4 1 1 2 4 4 3 8 9 38 52 54 51 47 39 32 32 30 24 20 16 22 19 13 10 10 8
29 29 28 8 8 14 21 21 17 15 6 6 5 6 9 13 8 13 20 17 24 29 27 17 12 5 4 3 1 3 2 5 7 8 5 36 54 62 56 48 36 35 33 29 26 22 21 17 23 20 15 11 13 12
27 27 9 15 20 26 28 22 13 12 6 7 10 7 13 8 10 21 24 19 17 9 14 7 5 3 5 5 3 7 3 6 6 4 25 59 58 61 56 43 34 32 29 28 26 23 23 20 22 25 22 13 11 15
26 11 17 30 35 37 17 13 10 9 8 7 11 20 32 26 23 24 20 15 5 12 2 5 4 4 6 3 4 4 6 5 6 27 50 56 59 60 52 44 36 33 29 27 27 23 25 23 17 23 24 22 16 16
30 25 26 23 27 17 8 11 7 9 12 15 9 16 17 26 20 23 30 14 4 1 2 6 11 5 3 5 5 4 1 12 26 37 46 39 48 50 46 41 36 30 27 26 24 22 22 26 18 14 20 22 24 22
33 33 24 13 8 8 3 7 11 8 15 15 21 28 23 17 28 19 21 23 19 17 9 2 3 2 5 6 5 4 18 29 35 37 35 34 39 47 41 35 31 29 26 27 24 25 23 19 23 19 16 17 19 17
27 19 10 7 8 4 5 8 7 10 8 7 18 17 16 23 28 27 27 21 16 6 4 5 6 9 7 10 13 12 25 36 40 39 38 45 45 41 38 33 28 27 27 29 26 24 24 19 7 9 15 14 11 16
14 5 12 7 9 11 8 7 8 9 14 11 22 17 15 19 14 10 9 8 6 4 4 11 17 11 15 13 2 21 35 37 39 40 46 46 44 41 35 27 25 28 29 29 27 25 16 10 10 7 13 19 24 20
9 11 7 5 6 6 10 11 11 13 9 14 17 7 10 8 8 5 8 5 3 5 5 6 9 5 4 12 18 29 35 32 33 30 41 40 46 42 36 28 28 27 25 22 23 20 19 17 13 12 17 19 15 18
7 5 5 5 6 7 10 8 7 7 4 6 7 6 6 6 4 10 5 6 8 16 13 6 4 3 14 22 14 21 27 30 30 31 29 33 33 31 33 28 25 24 25 24 22 19 20 21 17 15 22 21 15 13
2 4 5 5 9 9 6 6 8 7 7 4 3 6 5 4 1 4 5 7 16 23 16 7 7 7 20 23 19 23 20 17 24 30 30 29 32 31 29 25 26 26 21 19 25 24 22 23 23 22 18 20 16 12
6 7 6 8 8 5 6 4 6 3 6 6 4 6 3 6 3 5 4 3 16 13 19 13 16 18 22 22 18 16 16 15 20 26 33 36 27 26 31 33 29 28 30 31 29 28 28 26 29 27 24 21 20 18
6 7 11 7 6 7 4 5 6 5 5 5 7 1 4 3 4 4 2 7 17 22 16 18 18 4 18 22 21 21 15 15 19 23 29 31 38 34 30 34 35 34 32 35 39 33 33 30 31 30 27 23 19 17
6 8 11 12 9 10 8 11 17 7 6 5 4 5 5 3 4 1 8 8 7 10 11 19 18 15 12 16 21 19 14 7 16 21 19 15 26 27 26 25 30 30 22 10 28 34 33 36 36 34 30 26 23 18
11 9 8 9 10 16 7 5 5 3 4 8 8 4 7 3 1 5 5 4 1 4 12 11 10 10 9 13 9 4 13 18 18 8 9 18 22 20 14 24 33 25 30 15 15 27 25 30 32 30 29 32 31 28
10 10 7 12 13 10 9 7 3 5 7 3 2 3 5 6 8 7 5 2 8 8 8 4 6 3 3 5 5 2 5 8 7 13 17 20 25 18 19 18 22 32 34 29 24 21 22 19 22 24 22 19 20 25
10 13 8 8 5 4 4 10 3 13 14 9 8 32 34 24 19 12 9 9 6 5 6 6 5 3 2 4 8 7 6 9 7 3 5 9 14 16 23 26 24 26 39 38 32 31 33 29 27 29 27 21 24 23
7 4 8 8 7 9 15 9 10 9 7 11 34 32 21 16 16 11 7 7 6 5 1 3 4 3 1 2 3 6 5 4 1 3 10 9 9 12 20 18 20 28 37 41 39 39 38 39 36 39 39 32 28 26
10 15 7 4 6 6 14 8 4 7 6 14 12 16 18 10 6 7 5 4 7 13 14 14 15 17 18 17 15 16 15 14 11 10 7 7 12 13 9 21 22 28 43 45 48 38 42 44 44 47 44 38 32 27
11 18 16 8 5 4 7 6 2 2 5 7 10 19 10 10 7 9 5 3 6 8 11 15 19 21 23 23 26 28 31 32 31 27 22 16 16 16 24 26 35 27 28 35 35 36 42 45 42 47 45 40 34 26
Wind_Direction_850mb
280 280 285 291 298 303 307 311 314 315 317 319 319 319 320 327 332 318 307 312 293 288 291 278 267 292 292 258 287 299 319 338 300 318 322 350 351 357 20 109 118 114 106 107 287 86 4 12 322 160 149 100 118 121
274 282 294 300 303 305 308 309 312 314 314 315 318 317 318 319 329 322 307 305 303 287 272 290 287 286 267 265 272 259 268 308 300 316 313 2 358 14 345 69 37 46 155 130 95 193 321 56 94 102 106 98 110 114
278 287 290 293 300 304 305 309 313 312 312 314 316 315 315 319 318 318 306 312 309 291 303 288 284 304 298 264 294 245 248 273 252 310 296 325 41 339 26 9 87 81 27 91 90 25 42 68 97 108 118 116 122 131
281 282 292 294 299 304 306 310 311 312 313 316 318 315 318 312 312 309 304 303 293 275 278 290 322 306 313 288 267 256 257 284 292 301 294 313 75 243 347 61 83 329 27 98 83 102 79 67 104 114 114 120 121 124
273 277 285 297 302 307 310 309 311 310 313 314 315 315 314 310 309 301 294 282 325 220 283 291 306 311 331 312 314 243 242 262 282 19 325 301 232 309 350 63 13 353 152 129 159 114 109 119 122 127 122 119 122 126
268 280 295 295 300 303 305 308 306 309 313 313 316 318 316 312 309 309 313 218 44 29 288 304 312 309 344 333 308 250 238 263 251 182 241 284 350 88 75 74 302 21 72 141 128 131 124 130 128 128 123 117 115 113
269 274 285 295 300 305 308 306 308 310 312 316 318 313 314 307 272 251 239 287 296 295 284 284 281 301 325 335 256 207 221 253 249 317 16 335 351 38 78 94 148 90 114 124 138 139 104 126 111 112 114 115 115 109
277 285 295 298 300 304 303 307 310 312 319 323 317 313 316 308 281 266 255 317 326 270 246 276 278 333 349 317 351 8 326 20 36 354 350 24 8 24 56 30 110 114 118 116 138 160 135 128 125 113 107 100 84 349
285 290 294 299 302 304 307 313 313 319 332 330 326 324 296 309 300 285 298 293 250 247 269 273 285 307 334 306 341 350 6 25 330 41 344 62 339 30 260 137 122 137 146 130 127 127 127 120 108 92 61 21 345 320
292 299 302 305 303 309 311 314 317 327 340 334 341 350 288 311 291 305 249 232 222 225 230 257 252 264 301 353 351 1 11 279 22 287 42 50 37 33 93 131 143 142 144 145 128 122 121 108 93 56 10 346 332 313
300 300 303 308 309 311 311 318 321 329 342 353 344 314 317 329 305 268 254 217 200 232 224 241 227 253 231 11 277 252 244 209 108 262 108 17 94 93 125 121 126 139 139 124 119 116 109 92 68 25 357 333 325 315
295 299 305 306 307 311 315 323 327 326 333 326 305 301 313 306 287 292 256 250 223 242 232 243 256 215 218 218 197 218 227 91 214 130 75 141 112 139 135 132 137 142 137 133 136 120 98 68 39 12 356 337 341 333
298 302 305 307 310 311 325 331 325 313 323 319 252 263 273 262 282 236 257 281 320 347 333 323 324 276 194 228 238 36 41 253 103 55 192 187 137 145 141 137 134 136 134 128 119 103 83 58 34 21 29 24 4 344
300 302 308 309 303 304 323 323 322 318 325 268 274 282 213 232 236 215 240 251 268 261 298 311 293 305 316 356 153 35 250 105 63 170 228 160 156 154 152 146 139 140 139 130 116 101 77 55 47 43 43 44 24 43
304 311 308 274 261 288 301 303 304 288 263 260 231 243 231 251 290 304 299 272 277 291 289 298 288 248 294 320 270 20 241 263 208 222 217 166 166 165 158 154 146 153 150 142 130 105 79 72 61 58 57 70 60 92
312 321 225 221 270 294 297 291 280 234 240 236 232 272 274 325 316 313 306 295 311 291 304 237 281 319 260 198 162 225 185 235 252 223 145 156 165 167 163 164 169 156 154 149 140 108 84 91 74 63 62 81 87 84
315 315 283 284 295 307 283 271 201 222 239 231 243 246 259 277 266 270 279 298 313 324 295 30 310 253 302 257 240 169 203 238 189 132 155 165 171 171 172 171 164 163 159 157 150 125 89 86 73 64 67 71 96 96
311 316 312 306 309 328 178 196 247 233 239 246 233 262 242 252 261 298 295 303 290 351 78 219 214 246 273 295 307 273 234 121 139 155 159 166 169 175 176 173 171 169 161 156 158 149 96 82 76 82 68 72 78 95
316 315 311 284 300 326 242 235 232 262 245 259 265 279 280 295 290 290 291 295 298 268 263 155 30 290 262 250 257 238 160 153 147 148 157 167 180 178 176 174 169 167 163 155 149 148 129 104 66 83 98 74 70 80
310 313 324 243 202 223 266 265 241 265 269 279 279 281 287 274 284 283 273 269 251 230 189 153 213 231 243 314 320 255 175 160 155 147 156 168 177 177 174 172 168 164 159 156 153 149 145 138 127 92 88 107 99 97
323 298 322 199 214 236 258 278 253 254 293 281 292 307 285 287 273 256 256 226 213 229 237 232 252 274 297 324 171 166 168 165 174 174 173 173 179 178 172 170 169 170 172 173 175 177 171 155 132 120 130 101 98 100
281 291 306 237 245 239 256 241 250 296 267 275 295 254 272 283 266 229 180 181 240 316 304 336 336 17 27 126 144 173 172 185 189 181 181 182 179 182 179 179 179 183 191 185 178 170 164 162 156 153 141 147 123 102
238 239 265 253 272 235 262 237 247 252 244 265 282 288 255 259 266 172 75 56 36 344 307 288 300 278 162 158 157 177 188 192 191 189 185 201 197 193 192 191 185 182 185 191 185 182 174 170 166 145 149 153 156 148
276 264 261 241 226 263 269 239 233 252 272 278 269 276 277 304 272 75 73 28 6 36 20 191 200 181 181 189 183 175 176 190 192 191 197 205 201 202 206 205 204 205 205 195 195 197 194 189 183 179 157 141 151 151
262 231 219 260 244 256 259 242 227 218 248 229 238 269 293 344 68 59 80 351 9 35 44 45 232 222 179 163 168 173 180 188 194 196 205 207 196 192 212 220 225 228 222 214 211 203 197 189 187 185 185 185 183 182
247 227 198 240 232 197 251 303 309 253 253 256 234 199 18 34 82 88 90 112 62 47 44 49 47 167 192 171 177 177 185 211 212 204 202 211 211 202 208 218 227 233 238 240 230 211 204 197 191 191 193 193 190 189
261 273 237 241 259 276 283 244 230 240 262 245 193 110 23 351 112 207 131 137 135 28 67 75 54 60 103 136 131 128 135 148 199 201 206 212 195 213 220 225 227 229 214 219 220 211 206 198 197 203 207 210 212 213
243 261 234 300 277 235 229 248 255 289 12 346 0 64 147 32 125 143 135 67 350 48 102 94 83 52 83 97 103 170 212 217 218 204 175 178 182 196 230 240 231 227 197 194 184 199 197 196 200 209 221 228 227 223
244 240 251 270 264 249 227 223 261 75 323 344 276 145 141 77 86 92 100 104 132 122 141 157 142 202 290 289 301 340 148 157 182 221 239 240 221 206 216 226 225 224 210 200 185 192 198 195 201 210 208 218 206 200
250 207 220 258 246 249 10 330 259 280 220 208 109 117 110 100 105 100 92 88 123 114 77 61 75 143 134 160 117 116 153 183 173 186 264 282 266 237 223 229 219 213 212 208 196 199 205 206 209 208 208 208 200 200
254 216 226 243 268 264 299 314 309 321 156 129 149 137 129 130 114 127 126 90 99 121 311 336 340 358 103 144 128 148 130 101 135 233 233 255 258 243 220 214 218 215 208 207 205 207 210 211 214 212 214 217 214 212
216 209 209 231 269 307 307 297 264 194 146 148 164 160 158 149 117 160 126 195 241 256 258 260 275 284 295 305 301 294 277 286 279 259 258 253 232 218 218 224 214 218 218 214 217 222 226 218 220 219 221 221 217 215
223 234 241 262 284 311 7 320 232 88 139 137 153 178 167 149 147 186 233 259 262 263 268 261 257 260 260 264 264 265 262 261 261 266 258 256 261 257 231 239 229 215 210 213 223 220 215 213 224 221 218 216 214 219